Date,TemperatureHighF,TemperatureAvgF,TemperatureLowF,DewpointHighF,DewpointAvgF,DewpointLowF,HumidityHigh,HumidityAvg,HumidityLow,PressureMaxIn,PressureMinIn,WindSpeedMaxMPH,WindSpeedAvgMPH,GustSpeedMaxMPH,PrecipitationSumIn
2013-1-1,22.0,13.1,8.0,14.0,7.4,3.0,90,79,46,0.00,40.00,0,-999,0,0.01
2013-1-2,13.0,9.2,6.0,8.0,2.0,-3.0,89,72,55,0.00,40.00,0,-999,0,0.00
2013-1-3,39.0,25.8,10.0,8.0,-3.3,-12.0,52,29,16,0.00,40.00,0,-999,0,0.01
2013-1-4,37.0,30.6,22.0,5.0,-1.5,-7.0,41,25,15,0.00,40.00,0,-999,0,0.01
2013-1-5,29.0,20.6,12.0,10.0,-0.9,-26.0,78,44,9,0.00,40.00,0,-999,0,0.00
2013-1-6,39.0,31.3,27.0,13.0,-1.6,-20.0,56,27,9,0.00,40.00,0,-999,0,0.01
2013-1-7,30.0,25.0,18.0,16.0,10.4,7.0,69,54,37,0.00,40.00,0,-999,0,0.00
2013-1-8,24.0,22.2,20.0,15.0,12.5,9.0,79,66,54,0.00,40.00,0,-999,0,0.00
2013-1-9,45.0,34.7,25.0,16.0,8.5,0.0,68,36,20,0.00,40.00,0,-999,0,0.01
2013-1-10,38.0,32.4,13.0,19.0,5.6,-99.9,81,41,20,0.00,40.00,0,-999,0,0.00
2013-1-11,9.0,-0.6,-7.0,8.0,-3.8,-11.0,93,85,80,0.00,40.00,0,-999,0,0.00
2013-1-12,0.0,-4.1,-7.0,-4.0,-8.1,-12.0,85,82,80,0.00,40.00,0,-999,0,0.00
2013-1-13,-1.0,-7.7,-39.0,-7.0,-12.4,-42.0,82,80,75,0.00,40.00,0,-999,0,0.00
2013-1-14,9.0,-1.2,-9.0,3.0,-13.2,-99.9,77,66,55,0.00,40.00,0,-999,0,0.00
2013-1-15,29.0,21.7,11.0,24.0,17.3,6.0,90,83,73,0.00,40.00,0,-999,0,0.02
2013-1-16,31.0,26.3,21.0,18.0,12.6,9.0,74,57,41,0.00,40.00,0,-999,0,0.00
2013-1-17,36.0,27.8,19.0,13.0,7.7,3.0,68,45,29,0.00,40.00,0,-999,0,0.00
2013-1-18,38.0,31.9,28.0,6.0,2.8,-1.0,36,29,22,0.00,40.00,0,-999,0,0.01
2013-1-19,36.0,27.9,23.0,6.0,0.2,-4.0,43,30,19,0.00,40.00,0,-999,0,0.00
2013-1-20,27.0,21.4,12.0,16.0,7.7,-1.0,87,57,31,0.00,40.00,0,-999,0,0.00
2013-1-21,35.0,28.2,21.0,12.0,6.5,-2.0,63,41,25,0.00,40.00,0,-999,0,0.00
2013-1-22,39.0,33.6,28.0,0.0,-7.2,-11.0,27,17,13,0.00,40.00,0,-999,0,0.00
2013-1-23,44.0,37.8,33.0,-1.0,-4.9,-10.0,23,16,12,0.00,40.00,0,-999,0,0.00
2013-1-24,39.0,33.1,26.0,19.0,11.3,-6.0,67,44,14,0.00,40.00,0,-999,0,0.00
2013-1-25,41.0,31.3,26.0,19.0,14.7,7.0,61,50,37,0.00,40.00,0,-999,0,0.00
2013-1-26,39.0,32.2,27.0,21.0,18.5,16.0,68,57,45,0.00,40.00,0,-999,0,0.00
2013-1-27,33.0,24.9,15.0,21.0,17.8,14.0,96,76,54,0.00,40.00,0,-999,0,0.01
2013-1-28,15.0,11.3,4.0,13.0,9.1,1.0,94,91,87,0.00,40.00,0,-999,0,0.01
2013-1-29,10.0,3.9,-1.0,7.0,0.0,-5.0,86,83,78,0.00,40.00,0,-999,0,0.00
2013-1-30,19.0,12.1,2.0,17.0,8.9,-4.0,91,86,77,0.00,40.00,0,-999,0,0.01
2013-1-31,23.0,20.2,10.0,19.0,16.1,7.0,92,84,78,0.00,40.00,0,-999,0,0.01
2013-2-1,25.0,21.7,19.0,21.0,16.3,12.0,89,79,70,0.00,40.00,0,-999,0,0.01
2013-2-2,30.0,23.3,17.0,17.0,12.3,8.0,83,63,45,0.00,40.00,0,-999,0,0.00
2013-2-3,36.0,27.9,22.0,13.0,6.2,3.0,63,41,24,0.00,40.00,0,-999,0,0.00
2013-2-4,30.0,25.9,22.0,17.0,12.9,8.0,67,57,50,0.00,40.00,0,-999,0,0.00
2013-2-5,35.0,27.4,20.0,21.0,15.3,8.0,80,60,47,0.00,40.00,0,-999,0,0.00
2013-2-6,28.0,22.4,14.0,20.0,14.0,8.0,91,71,44,0.00,40.00,0,-999,0,0.00
2013-2-7,36.0,23.4,10.0,11.0,-3.4,-12.0,84,38,15,0.00,40.00,0,-999,0,0.00
2013-2-8,29.0,23.3,17.0,7.0,-2.5,-15.0,67,34,14,0.00,40.00,0,-999,0,0.01
2013-2-9,22.0,16.3,13.0,18.0,13.5,9.0,94,88,80,0.00,40.00,0,-999,0,0.00
2013-2-10,13.0,8.7,3.0,11.0,5.8,-1.0,92,88,83,0.00,40.00,0,-999,0,0.01
2013-2-11,21.0,9.6,0.0,2.0,-4.3,-12.0,83,55,30,0.00,40.00,0,-999,0,0.00
2013-2-12,26.0,18.8,12.0,16.0,9.7,-4.0,79,68,45,0.00,40.00,0,-999,0,0.01
2013-2-13,28.0,21.2,17.0,18.0,14.0,11.0,92,74,53,0.00,40.00,0,-999,0,0.00
2013-2-14,17.0,10.2,6.0,14.0,6.0,3.0,91,83,68,0.00,40.00,0,-999,0,0.00
2013-2-15,24.0,16.6,9.0,19.0,11.4,6.0,91,80,60,0.00,40.00,0,-999,0,0.02
2013-2-16,39.0,28.6,21.0,20.0,15.3,9.0,84,59,34,0.00,40.00,0,-999,0,0.01
2013-2-17,31.0,21.1,13.0,19.0,10.6,1.0,95,69,28,0.00,40.00,0,-999,0,0.00
2013-2-18,18.0,11.1,6.0,12.0,5.7,-2.0,90,79,61,0.00,40.00,0,-999,0,0.00
2013-2-19,38.0,23.9,7.0,7.0,-4.4,-13.0,68,32,14,0.00,40.00,0,-999,0,0.01
2013-2-20,29.0,20.8,13.0,9.0,5.1,2.0,76,51,32,0.00,40.00,0,-999,0,0.01
2013-2-21,22.0,13.7,8.0,15.0,6.9,2.0,90,75,56,0.00,40.00,0,-999,0,0.00
2013-2-22,22.0,12.5,4.0,7.0,-1.4,-99.9,90,65,40,0.00,40.00,0,-999,0,0.00
2013-2-23,26.0,20.3,12.0,20.0,7.4,-99.9,93,72,62,0.00,40.00,0,-999,0,0.01
2013-2-24,18.0,12.4,7.0,11.0,2.3,-99.9,92,81,77,0.00,40.00,0,-999,0,0.02
2013-2-25,35.0,23.9,13.0,18.0,12.1,8.0,79,62,40,0.00,40.00,0,-999,0,0.01
2013-2-26,18.0,13.7,7.0,14.0,10.2,4.0,92,86,76,0.00,40.00,0,-999,0,0.01
2013-2-27,24.0,12.9,5.0,10.0,5.0,1.0,84,71,45,0.00,40.00,0,-999,0,0.00
2013-2-28,24.0,17.7,11.0,12.0,6.9,3.0,75,63,48,0.00,40.00,0,-999,0,0.00
2013-3-1,36.0,28.1,18.0,27.0,17.8,-4.0,86,66,32,0.00,40.00,0,-999,0,0.01
2013-3-2,46.0,35.5,29.0,22.0,19.1,14.0,70,53,29,0.00,40.00,0,-999,0,0.00
2013-3-3,39.0,29.5,12.0,27.0,19.1,10.0,93,66,50,0.00,40.00,0,-999,0,0.00
2013-3-4,12.0,7.1,2.0,9.0,-1.6,-11.0,87,67,51,0.00,40.00,0,-999,0,0.00
2013-3-5,35.0,21.0,6.0,0.0,-9.2,-99.9,64,33,14,0.00,40.00,0,-999,0,0.01
2013-3-6,44.0,32.6,24.0,18.0,9.3,-2.0,56,38,21,0.00,40.00,0,-999,0,0.01
2013-3-7,35.0,26.9,20.0,24.0,13.8,6.0,84,59,29,0.00,40.00,0,-999,0,0.00
2013-3-8,37.0,28.7,20.0,23.0,20.2,15.0,90,71,53,0.00,40.00,0,-999,0,0.00
2013-3-9,25.0,18.8,12.0,22.0,15.6,9.0,93,87,76,0.00,40.00,0,-999,0,0.00
2013-3-10,40.0,25.1,10.0,17.0,6.5,1.0,84,48,26,0.00,40.00,0,-999,0,0.01
2013-3-11,28.0,20.6,9.0,21.0,14.2,4.0,93,78,34,0.00,40.00,0,-999,0,0.01
2013-3-12,33.0,21.0,8.0,19.0,9.5,-2.0,91,66,23,0.00,40.00,0,-999,0,0.01
2013-3-13,45.0,36.8,30.0,23.0,21.2,18.0,73,54,37,0.00,40.00,0,-999,0,0.01
2013-3-14,48.0,41.0,33.0,25.0,21.0,18.0,58,45,32,0.00,40.00,0,-999,0,0.00
2013-3-15,47.0,38.6,27.0,26.0,18.9,13.0,85,46,30,0.00,40.00,0,-999,0,0.00
2013-3-16,31.0,27.7,24.0,25.0,22.9,18.0,95,83,70,0.00,40.00,0,-999,0,0.00
2013-3-17,30.0,21.5,11.0,21.0,13.6,4.0,92,73,43,0.00,40.00,0,-999,0,0.00
2013-3-18,22.0,13.9,7.0,11.0,3.9,-1.0,86,65,45,0.00,40.00,0,-999,0,0.00
2013-3-19,19.0,13.7,9.0,14.0,6.7,-1.0,87,74,53,0.00,40.00,0,-999,0,0.00
2013-3-20,41.0,31.5,18.0,22.0,10.2,-16.0,60,43,16,0.00,40.00,0,-999,0,0.01
2013-3-21,32.0,22.2,13.0,22.0,17.3,9.0,96,84,50,0.00,40.00,0,-999,0,0.01
2013-3-22,14.0,10.1,4.0,11.0,6.3,1.0,89,83,68,0.00,40.00,0,-999,0,0.01
2013-3-23,11.0,4.0,-3.0,5.0,-0.7,-8.0,87,81,77,0.00,40.00,0,-999,0,0.01
2013-3-24,8.0,3.3,-2.0,2.0,-1.9,-7.0,86,79,72,0.00,40.00,0,-999,0,0.00
2013-3-25,26.0,14.8,1.0,12.0,1.7,-5.0,80,57,40,0.00,40.00,0,-999,0,0.01
2013-3-26,33.0,23.6,12.0,10.0,3.5,-1.0,60,43,28,0.00,40.00,0,-999,0,0.01
2013-3-27,39.0,28.6,18.0,18.0,13.5,8.0,73,55,34,0.00,40.00,0,-999,0,0.01
2013-3-28,43.0,33.2,24.0,24.0,12.0,-99.9,73,50,26,0.00,40.00,0,-999,0,0.00
2013-3-29,44.0,37.3,30.0,29.0,21.2,14.0,95,53,32,0.00,40.00,0,-999,0,0.00
2013-3-30,36.0,30.7,25.0,29.0,18.7,-99.9,95,71,50,0.00,40.00,0,-999,0,0.00
2013-3-31,43.0,32.5,22.0,23.0,18.2,15.0,84,57,34,0.00,40.00,0,-999,0,0.00
2013-4-1,38.0,29.3,21.0,21.0,15.6,9.0,85,58,31,0.00,40.00,0,-999,0,0.00
2013-4-2,46.0,35.0,25.0,20.0,15.9,11.0,70,47,30,0.00,40.00,0,-999,0,0.00
2013-4-3,44.0,37.4,30.0,25.0,19.3,10.0,79,49,36,0.00,40.00,0,-999,0,0.00
2013-4-4,50.0,41.1,33.0,27.0,22.3,18.0,63,48,30,0.00,40.00,0,-999,0,0.00
2013-4-5,44.0,37.9,28.0,34.0,27.3,22.0,97,67,47,0.00,40.00,0,-999,0,0.01
2013-4-6,40.0,33.4,27.0,31.0,26.0,23.0,89,75,51,0.00,40.00,0,-999,0,0.01
2013-4-7,41.0,33.9,29.0,27.0,23.2,19.0,90,66,45,0.00,40.00,0,-999,0,0.00
2013-4-8,31.0,16.5,6.0,23.0,13.6,3.0,96,88,71,0.00,40.00,0,-999,0,0.00
2013-4-9,15.0,8.1,0.0,9.0,-0.1,-99.9,88,81,78,0.00,40.00,0,-999,0,0.02
2013-4-10,34.0,22.1,8.0,25.0,12.0,-99.9,89,73,55,0.00,40.00,0,-999,0,0.01
2013-4-11,34.0,28.4,24.0,28.0,21.0,-99.9,95,83,67,0.00,40.00,0,-999,0,0.01
2013-4-12,31.0,23.0,19.0,21.0,18.0,11.0,92,82,53,0.00,40.00,0,-999,0,0.00
2013-4-13,41.0,31.2,21.0,27.0,20.3,12.0,94,65,46,0.00,40.00,0,-999,0,0.01
2013-4-14,22.0,16.2,9.0,17.0,10.3,5.0,92,78,61,0.00,40.00,0,-999,0,0.01
2013-4-15,17.0,9.7,3.0,10.0,5.1,0.0,88,82,68,0.00,40.00,0,-999,0,0.00
2013-4-16,14.0,7.8,3.0,8.0,4.2,0.0,90,85,76,0.00,40.00,0,-999,0,0.00
2013-4-17,12.0,7.4,3.0,8.0,3.7,-1.0,89,85,80,0.00,40.00,0,-999,0,0.00
2013-4-18,28.0,18.1,2.0,14.0,5.8,-3.0,84,60,39,0.00,40.00,0,-999,0,0.01
2013-4-19,36.0,27.8,19.0,21.0,16.9,11.0,79,64,47,0.00,40.00,0,-999,0,0.01
2013-4-20,40.0,31.1,26.0,29.0,22.8,18.0,90,72,46,0.00,40.00,0,-999,0,0.01
2013-4-21,33.0,25.1,14.0,26.0,21.4,13.0,95,86,66,0.00,40.00,0,-999,0,0.02
2013-4-22,16.0,10.3,2.0,12.0,7.5,-1.0,93,87,80,0.00,40.00,0,-999,0,0.02
2013-4-23,27.0,17.0,2.0,18.0,9.2,-3.0,86,71,52,0.00,40.00,0,-999,0,0.00
2013-4-24,31.0,28.2,26.0,18.0,14.7,13.0,67,56,52,0.00,40.00,0,-999,0,0.00
2013-4-25,46.0,37.5,28.0,17.0,10.2,3.0,54,34,19,0.00,40.00,0,-999,0,0.00
2013-4-26,51.0,41.6,30.0,21.0,16.2,14.0,58,37,24,0.00,40.00,0,-999,0,0.00
2013-4-27,54.0,44.5,34.0,21.0,18.3,15.0,53,36,22,0.00,40.00,0,-999,0,0.00
2013-4-28,42.0,37.3,33.0,36.0,27.4,20.0,94,70,41,0.00,40.00,0,-999,0,0.00
2013-4-29,49.0,39.9,27.0,31.0,23.4,17.0,97,55,31,0.00,40.00,0,-999,0,0.01
2013-4-30,24.0,20.2,17.0,23.0,18.8,16.0,97,94,91,0.00,40.00,0,-999,0,0.03
2013-5-1,24.0,17.7,13.0,19.0,14.4,8.0,94,87,77,0.00,40.00,0,-999,0,0.01
2013-5-2,39.0,26.8,13.0,20.0,16.2,9.0,89,66,44,0.00,40.00,0,-999,0,0.01
2013-5-3,47.0,36.2,28.0,31.0,20.8,14.0,93,56,29,0.00,40.00,0,-999,0,0.01
2013-5-4,34.0,30.8,29.0,32.0,30.0,28.0,99,96,93,0.00,40.00,0,-999,0,0.01
2013-5-5,43.0,34.6,25.0,29.0,19.2,-99.9,95,68,52,0.00,40.00,0,-999,0,0.01
2013-5-6,53.0,43.8,31.0,29.0,25.2,23.0,75,50,33,0.00,40.00,0,-999,0,0.00
2013-5-7,54.0,44.1,35.0,29.0,25.3,22.0,65,49,30,0.00,40.00,0,-999,0,0.00
2013-5-8,52.0,43.4,36.0,32.0,27.8,22.0,78,56,30,0.00,40.00,0,-999,0,0.00
2013-5-9,53.0,40.6,35.0,39.0,29.2,23.0,83,66,35,0.00,40.00,0,-999,0,0.01
2013-5-10,55.0,41.7,32.0,36.0,23.1,-99.9,86,60,30,0.00,40.00,0,-999,0,0.00
2013-5-11,53.0,43.9,33.0,32.0,28.7,20.0,85,57,31,0.00,40.00,0,-999,0,0.00
2013-5-12,63.0,52.4,41.0,35.0,30.0,28.0,64,44,27,0.00,40.00,0,-999,0,0.00
2013-5-13,68.0,57.7,47.0,33.0,29.5,26.0,55,36,21,0.00,40.00,0,-999,0,0.00
2013-5-14,64.0,54.6,40.0,43.0,32.2,22.0,82,47,20,0.00,40.00,0,-999,0,0.00
2013-5-15,60.0,48.5,40.0,38.0,34.5,28.0,87,60,36,0.00,40.00,0,-999,0,0.00
2013-5-16,54.0,46.8,41.0,41.0,19.8,-99.9,94,63,49,0.00,40.00,0,-999,0,0.00
2013-5-17,50.0,43.4,37.0,46.0,40.0,35.0,98,88,68,0.00,40.00,0,-999,0,0.01
2013-5-18,49.0,39.9,34.0,45.0,37.9,32.0,99,92,86,0.00,40.00,0,-999,0,0.01
2013-5-19,38.0,35.7,33.0,38.0,35.7,33.0,100,99,99,0.00,40.00,0,-999,0,0.05
2013-5-20,38.0,33.1,30.0,38.0,32.4,30.0,100,97,88,0.00,40.00,0,-999,0,0.04
2013-5-21,45.0,37.4,31.0,35.0,32.6,31.0,100,84,65,0.00,40.00,0,-999,0,0.01
2013-5-22,51.0,42.8,31.0,41.0,34.9,26.0,97,75,52,0.00,40.00,0,-999,0,0.00
2013-5-23,65.0,53.2,43.0,41.0,32.6,23.0,88,50,21,0.00,40.00,0,-999,0,0.00
2013-5-24,56.0,47.7,40.0,38.0,28.0,10.0,93,54,16,0.00,40.00,0,-999,0,0.00
2013-5-25,65.0,52.6,39.0,36.0,21.0,13.0,76,33,15,0.00,40.00,0,-999,0,0.00
2013-5-26,58.0,46.5,39.0,45.0,39.3,32.0,95,77,52,0.00,40.00,0,-999,0,0.00
2013-5-27,53.0,43.8,37.0,44.0,32.4,23.0,92,66,39,0.00,40.00,0,-999,0,0.01
2013-5-28,51.0,42.5,36.0,39.0,32.6,25.0,97,70,47,0.00,40.00,0,-999,0,0.00
2013-5-29,41.0,39.1,37.0,41.0,38.5,36.0,99,98,97,0.00,40.00,0,-999,0,0.02
2013-5-30,42.0,36.2,33.0,40.0,35.0,31.0,99,95,92,0.00,40.00,0,-999,0,0.01
2013-5-31,42.0,34.9,32.0,34.0,30.3,28.0,98,83,74,0.00,40.00,0,-999,0,0.01
2013-6-1,45.0,37.4,29.0,39.0,33.7,27.0,99,86,76,0.00,40.00,0,-999,0,0.02
2013-6-2,60.0,50.9,39.0,45.0,35.3,28.0,74,57,31,0.00,40.00,0,-999,0,0.00
2013-6-3,52.0,44.6,38.0,39.0,29.8,24.0,92,58,38,0.00,40.00,0,-999,0,0.01
2013-6-4,39.0,32.8,30.0,32.0,30.2,23.0,100,91,71,0.00,40.00,0,-999,0,0.00
2013-6-5,47.0,39.2,30.0,39.0,33.5,27.0,97,80,61,0.00,40.00,0,-999,0,0.00
2013-6-6,57.0,48.9,40.0,41.0,36.1,27.0,84,62,46,0.00,40.00,0,-999,0,0.00
2013-6-7,66.0,53.8,45.0,47.0,36.6,30.0,72,54,29,0.00,40.00,0,-999,0,0.00
2013-6-8,52.0,45.1,39.0,45.0,39.1,36.0,95,80,56,0.00,40.00,0,-999,0,0.02
2013-6-9,69.0,57.2,43.0,37.0,30.7,24.0,66,40,20,0.00,40.00,0,-999,0,0.00
2013-6-10,73.0,58.8,48.0,49.0,40.4,29.0,89,53,26,0.00,40.00,0,-999,0,0.00
2013-6-11,69.0,54.8,44.0,54.0,45.5,33.0,94,73,42,0.00,40.00,0,-999,0,0.02
2013-6-12,67.0,53.4,44.0,51.0,43.7,35.0,98,74,32,0.00,40.00,0,-999,0,0.01
2013-6-13,70.0,57.1,45.0,52.0,42.8,34.0,96,65,27,0.00,40.00,0,-999,0,0.01
2013-6-14,56.0,47.1,36.0,44.0,31.7,20.0,98,61,28,0.00,40.00,0,-999,0,0.00
2013-6-15,62.0,47.4,34.0,39.0,24.8,5.0,76,47,11,0.00,40.00,0,-999,0,0.00
2013-6-16,62.0,52.7,43.0,42.0,32.1,17.0,85,47,31,0.00,40.00,0,-999,0,0.00
2013-6-17,60.0,52.3,45.0,50.0,43.1,35.0,90,72,57,0.00,40.00,0,-999,0,0.00
2013-6-18,70.0,55.0,48.0,46.0,36.2,30.0,91,52,30,0.00,40.00,0,-999,0,0.00
2013-6-19,76.0,64.1,50.0,37.0,23.0,12.0,50,24,10,0.00,40.00,0,-999,0,0.00
2013-6-20,60.0,52.2,42.0,28.0,14.3,6.0,39,23,14,0.00,40.00,0,-999,0,0.00
2013-6-22,49.0,43.1,38.0,45.0,41.1,36.0,98,92,69,0.00,40.00,0,-999,0,0.02
2013-6-23,58.0,48.1,35.0,45.0,35.2,29.0,98,64,34,0.00,40.00,0,-999,0,0.01
2013-6-24,73.0,59.5,45.0,41.0,29.6,24.0,86,35,16,0.00,40.00,0,-999,0,0.00
2013-6-25,62.0,55.0,47.0,45.0,34.4,27.0,89,48,30,0.00,40.00,0,-999,0,0.00
2013-6-26,67.0,58.4,48.0,43.0,37.8,32.0,68,47,35,0.00,40.00,0,-999,0,0.00
2013-6-27,73.0,61.1,50.0,50.0,42.3,31.0,86,53,21,0.00,40.00,0,-999,0,0.00
2013-6-28,71.0,61.9,54.0,50.0,46.6,43.0,87,58,44,0.00,40.00,0,-999,0,0.00
2013-6-29,69.0,62.2,54.0,51.0,46.5,39.0,71,57,51,0.00,40.00,0,-999,0,0.00
2013-6-30,70.0,61.1,53.0,53.0,47.2,41.0,82,61,46,0.00,40.00,0,-999,0,0.00
2013-7-1,68.0,60.6,53.0,49.0,46.2,40.0,75,59,49,0.00,40.00,0,-999,0,0.00
2013-7-2,72.0,60.7,50.0,47.0,43.8,40.0,82,56,37,0.00,40.00,0,-999,0,0.00
2013-7-3,73.0,66.1,58.0,51.0,44.9,38.0,61,47,36,0.00,40.00,0,-999,0,0.00
2013-7-4,68.0,59.5,51.0,58.0,48.3,36.0,96,68,44,0.00,40.00,0,-999,0,0.03
2013-7-5,63.0,55.6,50.0,54.0,50.3,45.0,97,83,66,0.00,40.00,0,-999,0,0.04
2013-7-6,64.0,55.8,51.0,53.0,44.3,40.0,83,66,45,0.00,40.00,0,-999,0,0.00
2013-7-7,74.0,60.6,51.0,47.0,42.4,33.0,83,55,23,0.00,40.00,0,-999,0,0.00
2013-7-8,73.0,59.3,53.0,46.0,40.2,33.0,78,51,30,0.00,40.00,0,-999,0,0.00
2013-7-9,65.0,56.0,50.0,48.0,43.4,36.0,87,64,46,0.00,40.00,0,-999,0,0.00
2013-7-10,75.0,62.6,51.0,47.0,42.0,34.0,86,49,23,0.00,40.00,0,-999,0,0.00
2013-7-11,80.0,67.8,60.0,43.0,35.8,30.0,54,33,17,0.00,40.00,0,-999,0,0.00
2013-7-12,66.0,57.3,52.0,50.0,42.8,31.0,89,61,27,0.00,40.00,0,-999,0,0.01
2013-7-13,73.0,62.2,52.0,50.0,35.0,24.0,92,41,18,0.00,40.00,0,-999,0,0.00
2013-7-14,70.0,58.0,48.0,52.0,47.2,43.0,98,70,47,0.00,40.00,0,-999,0,0.00
2013-7-15,77.0,63.4,56.0,47.0,40.4,31.0,59,44,25,0.00,40.00,0,-999,0,0.00
2013-7-16,69.0,57.1,52.0,53.0,48.7,28.0,95,76,32,0.00,40.00,0,-999,0,0.01
2013-7-17,74.0,63.2,54.0,57.0,49.1,43.0,85,61,45,0.00,40.00,0,-999,0,0.00
2013-7-18,71.0,64.9,56.0,53.0,47.4,41.0,68,53,41,0.00,40.00,0,-999,0,0.00
2013-7-19,74.0,63.1,53.0,49.0,36.7,-99.9,78,49,33,0.00,40.00,0,-999,0,0.00
2013-7-20,68.0,62.1,55.0,45.0,42.2,40.0,59,49,41,0.00,40.00,0,-999,0,0.01
2013-7-21,73.0,62.7,53.0,41.0,36.2,27.0,60,39,26,0.00,40.00,0,-999,0,0.00
2013-7-22,77.0,65.0,52.0,38.0,31.3,18.0,50,31,11,0.00,40.00,0,-999,0,0.00
2013-7-23,71.0,61.9,52.0,45.0,37.2,33.0,72,42,28,0.00,40.00,0,-999,0,0.00
2013-7-24,71.0,61.6,51.0,48.0,40.9,31.0,67,49,23,0.00,40.00,0,-999,0,0.00
2013-7-25,63.0,55.6,49.0,52.0,44.1,28.0,89,67,32,0.00,40.00,0,-999,0,0.00
2013-7-26,67.0,58.6,49.0,52.0,45.6,40.0,86,63,50,0.00,40.00,0,-999,0,0.87
2013-7-27,69.0,56.9,51.0,50.0,40.9,26.0,86,57,31,0.00,40.00,0,-999,0,0.01
2013-7-28,61.0,54.6,50.0,50.0,42.1,35.0,84,63,48,0.00,40.00,0,-999,0,0.01
2013-7-29,55.0,51.1,48.0,50.0,45.2,38.0,94,81,56,0.00,40.00,0,-999,0,0.00
2013-7-30,66.0,54.7,46.0,51.0,41.6,35.0,96,65,31,0.00,40.00,0,-999,0,0.01
2013-7-31,67.0,57.2,44.0,50.0,45.0,40.0,96,67,47,0.00,40.00,0,-999,0,0.01
2013-8-1,69.0,60.6,49.0,45.0,42.7,38.0,72,53,41,0.00,40.00,0,-999,0,0.00
2013-8-2,69.0,59.2,47.0,50.0,40.4,20.0,93,58,16,0.00,40.00,0,-999,0,0.00
2013-8-3,69.0,57.6,48.0,56.0,49.0,37.0,95,75,37,0.00,40.00,0,-999,0,0.00
2013-8-4,74.0,60.9,52.0,55.0,43.5,24.0,94,61,16,0.00,40.00,0,-999,0,0.00
2013-8-5,75.0,58.1,50.0,49.0,41.8,27.0,93,61,18,0.00,40.00,0,-999,0,0.00
2013-8-6,62.0,56.8,47.0,47.0,42.6,37.0,82,59,50,0.00,40.00,0,-999,0,0.00
2013-8-7,65.0,56.1,46.0,48.0,41.5,37.0,76,60,41,0.00,40.00,0,-999,0,0.00
2013-8-8,66.0,54.2,47.0,50.0,42.6,34.0,88,67,41,0.00,40.00,0,-999,0,0.00
2013-8-9,58.0,50.1,46.0,50.0,46.4,41.0,96,87,63,0.00,40.00,0,-999,0,0.02
2013-8-10,65.0,56.9,47.0,52.0,43.6,32.0,93,63,36,0.00,40.00,0,-999,0,0.01
2013-8-11,69.0,57.0,49.0,47.0,38.2,33.0,67,50,32,0.00,40.00,0,-999,0,0.01
2013-8-12,67.0,57.8,52.0,46.0,36.2,31.0,60,45,33,0.00,40.00,0,-999,0,0.00
2013-8-13,64.0,52.4,45.0,48.0,39.0,31.0,89,62,39,0.00,40.00,0,-999,0,0.01
2013-8-14,64.0,54.5,47.0,43.0,38.2,34.0,72,55,41,0.00,40.00,0,-999,0,0.01
2013-8-15,70.0,61.2,51.0,39.0,36.3,31.0,58,41,28,0.00,40.00,0,-999,0,0.00
2013-8-16,76.0,72.7,60.0,36.0,27.0,20.0,40,19,13,0.00,40.00,0,-999,0,0.00
2013-8-17,76.0,68.6,59.0,39.0,30.2,21.0,46,26,14,0.00,40.00,0,-999,0,0.00
2013-8-18,73.0,63.0,57.0,47.0,40.0,30.0,60,44,23,0.00,40.00,0,-999,0,0.00
2013-8-19,77.0,64.3,56.0,43.0,39.1,34.0,57,41,24,0.00,40.00,0,-999,0,0.00
2013-8-20,74.0,66.2,59.0,40.0,22.4,-99.9,42,29,25,0.00,40.00,0,-999,0,0.00
2013-8-21,68.0,61.6,55.0,44.0,39.9,37.0,57,45,33,0.00,40.00,0,-999,0,0.01
2013-8-22,69.0,61.8,56.0,51.0,46.4,40.0,76,58,38,0.00,40.00,0,-999,0,0.00
2013-8-23,74.0,67.1,59.0,48.0,42.8,38.0,55,42,28,0.00,40.00,0,-999,0,0.00
2013-8-24,65.0,56.8,50.0,51.0,48.5,43.0,94,74,56,0.00,40.00,0,-999,0,0.01
2013-8-25,71.0,60.7,54.0,46.0,40.5,37.0,61,48,32,0.00,40.00,0,-999,0,0.00
2013-8-26,70.0,63.5,58.0,42.0,39.1,37.0,49,41,32,0.00,40.00,0,-999,0,0.00
2013-8-27,65.0,61.3,57.0,44.0,41.8,39.0,59,49,38,0.00,40.00,0,-999,0,0.00
2013-8-28,75.0,70.9,62.0,46.0,21.3,-99.9,43,30,27,0.00,40.00,0,-999,0,0.00
2013-8-29,72.0,65.6,56.0,44.0,41.3,38.0,64,42,34,0.00,40.00,0,-999,0,0.00
2013-8-30,75.0,67.3,56.0,40.0,33.2,25.0,54,30,16,0.00,40.00,0,-999,0,0.00
2013-8-31,62.0,55.0,48.0,43.0,38.8,35.0,75,55,42,0.00,40.00,0,-999,0,0.00
2013-9-1,72.0,61.3,49.0,39.0,35.9,31.0,70,41,26,0.00,40.00,0,-999,0,0.00
2013-9-2,75.0,65.9,57.0,48.0,34.7,24.0,64,34,17,0.00,40.00,0,-999,0,0.00
2013-9-3,68.0,59.8,55.0,51.0,48.1,46.0,73,65,55,0.00,40.00,0,-999,0,0.00
2013-9-4,70.0,64.2,53.0,52.0,48.6,44.0,87,58,41,0.00,40.00,0,-999,0,0.00
2013-9-5,79.0,68.9,57.0,50.0,43.9,36.0,69,43,24,0.00,40.00,0,-999,0,0.00
2013-9-6,73.0,65.0,57.0,47.0,41.1,36.0,68,43,28,0.00,40.00,0,-999,0,0.00
2013-9-7,72.0,61.8,52.0,54.0,48.5,45.0,79,63,38,0.00,40.00,0,-999,0,0.00
2013-9-8,62.0,52.6,46.0,54.0,49.3,43.0,97,89,74,0.00,40.00,0,-999,0,0.01
2013-9-9,54.0,47.3,41.0,49.0,42.0,38.0,97,82,67,0.00,40.00,0,-999,0,0.01
2013-9-10,58.0,50.2,43.0,44.0,30.8,-99.9,82,63,54,0.00,40.00,0,-999,0,0.00
2013-9-11,62.0,55.8,46.0,42.0,38.6,33.0,67,53,44,0.00,40.00,0,-999,0,0.00
2013-9-12,63.0,53.2,44.0,44.0,40.2,37.0,80,63,39,0.00,40.00,0,-999,0,0.00
2013-9-13,61.0,52.1,47.0,49.0,27.8,-99.9,98,72,63,0.00,40.00,0,-999,0,0.02
2013-9-14,54.0,48.5,44.0,49.0,37.1,-99.9,99,84,72,0.00,40.00,0,-999,0,0.09
2013-9-15,53.0,47.9,42.0,50.0,46.6,42.0,99,95,88,0.00,40.00,0,-999,0,0.09
2013-9-16,63.0,54.1,45.0,48.0,42.4,35.0,85,65,51,0.00,40.00,0,-999,0,0.00
2013-9-17,68.0,55.0,45.0,46.0,39.2,33.0,94,60,28,0.00,40.00,0,-999,0,0.01
2013-9-18,45.0,39.7,36.0,43.0,35.7,31.0,94,86,78,0.00,40.00,0,-999,0,0.02
2013-9-19,44.0,36.8,33.0,35.0,30.0,27.0,91,77,54,0.00,40.00,0,-999,0,0.01
2013-9-20,58.0,47.6,34.0,39.0,27.6,9.0,79,50,20,0.00,40.00,0,-999,0,0.00
2013-9-21,66.0,58.7,45.0,26.0,23.2,15.0,32,25,21,0.00,40.00,0,-999,0,0.00
2013-9-22,60.0,53.9,46.0,35.0,32.0,21.0,63,44,25,0.00,40.00,0,-999,0,0.00
2013-9-23,47.0,40.3,37.0,40.0,34.8,26.0,97,82,43,0.00,40.00,0,-999,0,0.02
2013-9-24,60.0,49.7,38.0,29.0,23.9,19.0,60,38,24,0.00,40.00,0,-999,0,0.00
2013-9-25,46.0,39.2,33.0,38.0,32.4,24.0,99,80,46,0.00,40.00,0,-999,0,0.01
2013-9-26,33.0,30.8,26.0,33.0,30.3,26.0,99,98,93,0.00,40.00,0,-999,0,0.03
2013-9-27,31.0,26.6,25.0,30.0,25.6,23.0,99,96,91,0.00,40.00,0,-999,0,0.03
2013-9-28,40.0,33.0,24.0,30.0,26.7,22.0,92,78,59,0.00,40.00,0,-999,0,0.01
2013-9-29,52.0,44.2,41.0,32.0,28.5,25.0,63,54,46,0.00,40.00,0,-999,0,0.00
2013-9-30,51.0,44.4,37.0,40.0,33.8,28.0,96,67,53,0.00,40.00,0,-999,0,0.00
2013-10-1,49.0,41.0,36.0,32.0,28.0,22.0,84,64,35,0.00,40.00,0,-999,0,0.00
2013-10-2,41.0,34.6,29.0,33.0,30.2,26.0,98,84,59,0.00,40.00,0,-999,0,0.02
2013-10-3,33.0,28.9,24.0,32.0,28.4,23.0,100,98,96,0.00,40.00,0,-999,0,0.05
2013-10-4,22.0,20.6,19.0,19.0,18.2,18.0,93,91,89,0.00,40.00,0,-999,0,0.07
2013-10-5,44.0,32.6,16.0,28.0,20.8,10.0,85,62,46,0.00,40.00,0,-999,0,0.01
2013-10-6,51.0,42.6,33.0,33.0,16.0,-99.9,78,51,26,0.00,40.00,0,-999,0,0.00
2013-10-7,65.0,52.5,41.0,20.0,12.2,8.0,40,21,11,0.00,40.00,0,-999,0,0.00
2013-10-8,48.0,40.2,34.0,33.0,26.2,14.0,88,59,33,0.00,40.00,0,-999,0,0.00
2013-10-9,42.0,35.6,30.0,35.0,30.5,28.0,92,82,63,0.00,40.00,0,-999,0,0.00
2013-10-10,49.0,44.0,37.0,31.0,28.9,27.0,70,56,44,0.00,40.00,0,-999,0,0.00
2013-10-11,32.0,28.6,22.0,31.0,15.1,-99.9,98,78,61,0.00,40.00,0,-999,0,0.01
2013-10-12,38.0,29.9,22.0,26.0,19.5,13.0,86,67,37,0.00,40.00,0,-999,0,0.00
2013-10-13,43.0,35.9,30.0,32.0,26.7,19.0,99,70,56,0.00,40.00,0,-999,0,0.00
2013-10-21,37.0,36.5,36.0,30.0,28.8,28.0,74,72,71,0.00,40.00,0,-999,0,0.00
2013-10-22,48.0,39.0,34.0,28.0,22.7,18.0,77,53,36,0.00,40.00,0,-999,0,0.00
2013-10-23,43.0,37.0,33.0,31.0,23.2,19.0,63,57,53,0.00,40.00,0,-999,0,0.00
2013-10-24,43.0,37.8,33.0,31.0,27.5,24.0,74,66,61,0.00,40.00,0,-999,0,0.00
2013-10-25,38.0,38.0,38.0,28.0,21.0,14.0,68,53,38,0.00,40.00,0,-999,0,0.00
2013-10-26,51.0,43.1,34.0,19.0,17.1,14.0,52,36,24,0.00,40.00,0,-999,0,0.00
2013-10-27,45.0,36.5,28.0,24.0,21.0,18.0,83,58,34,0.00,40.00,0,-999,0,0.00
2013-10-28,27.0,23.9,19.0,26.0,23.3,19.0,99,97,96,0.00,40.00,0,-999,0,0.00
2013-10-29,39.0,28.5,19.0,37.0,26.5,18.0,97,92,83,0.00,40.00,0,-999,0,0.00
2013-10-30,34.0,31.0,29.0,23.0,22.0,21.0,74,69,59,0.00,40.00,0,-999,0,0.00
2013-10-31,36.0,30.7,26.0,27.0,23.4,20.0,87,75,62,0.00,40.00,0,-999,0,0.00
2013-11-1,34.0,27.5,21.0,19.0,17.2,13.0,84,66,48,0.00,40.00,0,-999,0,0.00
2013-11-2,49.0,45.0,40.0,13.0,5.1,0.0,33,20,13,0.00,40.00,0,-999,0,0.00
2013-11-3,38.0,27.6,15.0,26.0,3.6,-99.9,96,67,37,0.00,40.00,0,-999,0,0.00
2013-11-4,21.0,15.1,10.0,15.0,9.8,5.0,94,80,59,0.00,40.00,0,-999,0,0.00
2013-11-5,20.0,17.7,10.0,8.0,5.6,3.0,82,60,50,0.00,40.00,0,-999,0,0.00
2013-11-12,53.0,42.5,28.0,19.0,10.7,-5.0,63,31,11,0.00,40.00,0,-999,0,0.00
2013-11-13,43.0,41.0,36.0,26.0,22.5,19.0,68,48,39,0.00,40.00,0,-999,0,0.00
2013-11-14,32.0,28.2,26.0,17.0,-7.5,-99.9,62,40,39,0.00,40.00,0,-999,0,0.00
2013-11-15,30.0,27.8,25.0,12.0,9.4,7.0,50,45,42,0.00,40.00,0,-999,0,0.00
2013-11-16,26.0,23.3,20.0,19.0,-2.0,-99.9,84,58,48,0.00,40.00,0,-999,0,0.00
2013-11-17,21.0,21.0,21.0,10.0,10.0,10.0,62,62,62,0.00,40.00,0,-999,0,0.00
2013-11-18,43.0,35.8,26.0,12.0,10.1,8.0,52,35,24,0.00,40.00,0,-999,0,0.01
2013-11-19,40.0,35.3,32.0,23.0,18.4,9.0,62,50,32,0.00,40.00,0,-999,0,0.00
2013-11-20,33.0,22.9,8.0,21.0,14.2,5.0,89,71,55,0.00,40.00,0,-999,0,0.00
2013-11-21,19.0,9.9,5.0,11.0,-11.0,-99.9,89,58,55,0.00,40.00,0,-999,0,0.01
2013-11-22,22.0,16.2,12.0,7.0,-1.0,-13.0,59,47,28,0.00,40.00,0,-999,0,0.00
2013-11-23,39.0,28.8,19.0,11.0,3.4,-5.0,50,34,23,0.00,40.00,0,-999,0,0.01
2013-11-24,41.0,32.1,26.0,18.0,8.6,-5.0,57,40,14,0.00,40.00,0,-999,0,0.00
2013-11-25,29.0,27.0,24.0,15.0,14.6,13.0,61,59,56,0.00,40.00,0,-999,0,0.00
2013-11-26,33.0,29.8,28.0,21.0,17.6,15.0,62,60,57,0.00,40.00,0,-999,0,0.00
2013-11-29,42.0,37.8,31.0,16.0,14.0,12.0,53,38,32,0.00,40.00,0,-999,0,0.00
2013-11-30,32.0,30.2,29.0,21.0,18.1,14.0,66,60,53,0.00,40.00,0,-999,0,0.00
2013-12-2,35.0,31.5,22.0,27.0,24.2,21.0,95,74,63,0.00,40.00,0,-999,0,0.00
2013-12-3,0.0,-4.5,-10.0,-4.0,-8.8,-15.0,86,82,79,0.00,40.00,0,-999,0,0.01
2013-12-4,-6.0,-9.7,-14.0,-11.0,-14.4,-19.0,80,78,77,0.00,40.00,0,-999,0,0.00
2013-12-5,-5.0,-11.9,-17.0,-10.0,-17.4,-23.0,77,75,73,0.00,40.00,0,-999,0,0.00
2013-12-6,-1.0,-11.2,-18.0,-11.0,-17.9,-24.0,75,71,61,0.00,40.00,0,-999,0,0.00
2013-12-7,4.0,-2.0,-10.0,-2.0,-8.0,-17.0,80,75,71,0.00,40.00,0,-999,0,0.01
2013-12-8,1.0,-4.0,-10.0,-7.0,-10.8,-17.0,80,72,65,0.00,40.00,0,-999,0,0.00
2013-12-9,13.0,9.4,7.0,7.0,3.0,-1.0,77,74,69,0.00,40.00,0,-999,0,0.01
2013-12-10,15.0,10.5,7.0,7.0,2.9,1.0,76,71,66,0.00,40.00,0,-999,0,0.00
2013-12-11,23.0,23.0,23.0,2.0,2.0,2.0,39,39,39,0.00,40.00,0,-999,0,0.00